Location: Newark
(47.4333°N, 19.2500°E)
Time: 01:45:55
(UTC+00:00)

X-37B - Pass Details

Date: 11 March 2021
Orbit: 380 x 394 km, 45.0° (Epoch: 07 April)

Event Time Altitude Azimuth Distance (km) Brightness Sun altitude
Rises 17:41:41 0° 200° (SSW) 2,257 4.6 -10.8°
Reaches altitude 10° 17:45:06 10° 161° (SSE) 1,412 3.2 -11.3°
Maximum altitude 17:45:56 11° 146° (SE) 1,370 3.0 -11.5°
Enters shadow 17:46:05 11° 143° (SE) 1,372 2.9 -11.5°
